GW7334 Weather Reports


time (UTC)temp
F
wind
direction
speed
knots
gust
knots
rain 1hr
in
rain 24hr
in
rain mn
in
humidity
%
barometer
mb
20260906145753 93 172 1.7 6.1 0.00 0.00 0.00 71 1004.6
20260906145251 93 144 6.1 6.1 0.00 0.00 0.00 71 1004.4
20260906144747 93 122 5.2 7.8 0.00 0.00 0.00 71 1004.5
20260906144242 94 123 2.6 7.8 0.00 0.00 0.00 70 1004.3
20260906143741 93 147 5.2 7.0 0.00 0.00 0.00 70 1004.3
20260906143239 94 137 5.2 7.8 0.00 0.00 0.00 69 1004.4
20260906142738 94 138 2.6 7.8 0.00 0.00 0.00 69 1004.2
20260906142233 94 130 6.1 8.7 0.00 0.00 0.00 68 1004.4
20260906141732 94 133 0.0 7.0 0.00 0.00 0.00 67 1004.3
20260906141227 94 137 5.2 7.0 0.00 0.00 0.00 67 1004.1
20260906140727 94 150 4.3 7.8 0.00 0.00 0.00 68 1004.1
20260906140221 94 141 6.1 7.8 0.00 0.00 0.00 69 1004.1
20260906135718 94 135 4.3 7.8 0.00 0.00 0.00 70 1004.1
20260906135214 94 145 2.6 10.4 0.00 0.00 0.00 69 1004.1
20260906134710 94 153 7.0 7.8 0.00 0.00 0.00 69 1004.2
20260906134205 94 168 6.1 7.8 0.00 0.00 0.00 69 1004.2
20260906133700 94 142 5.2 8.7 0.00 0.00 0.00 69 1004.3
20260906133155 94 172 4.3 9.6 0.00 0.00 0.00 69 1004.3
20260906132651 94 138 2.6 7.8 0.00 0.00 0.00 69 1004.1
20260906132147 94 135 5.2 9.6 0.00 0.00 0.00 67 1004.1
20260906131642 95 153 7.8 9.6 0.00 0.00 0.00 67 1004.1
20260906131137 94 130 7.8 9.6 0.00 0.00 0.00 67 1004.1
20260906130632 95 157 6.1 9.6 0.00 0.00 0.00 67 1004.0
20260906130127 95 170 2.6 8.7 0.00 0.00 0.00 69 1004.1
20260906125624 95 146 7.0 9.6 0.00 0.00 0.00 67 1004.0
20260906125124 95 159 4.3 9.6 0.00 0.00 0.00 68 1004.0
20260906124619 95 169 6.1 8.7 0.00 0.00 0.00 70 1003.9
20260906124114 95 144 3.5 10.4 0.00 0.00 0.00 68 1003.9
20260906123614 95 146 7.0 11.3 0.00 0.00 0.00 67 1003.9
20260906123109 95 130 5.2 10.4 0.00 0.00 0.00 68 1004.1
20260906122608 95 119 7.8 9.6 0.00 0.00 0.00 67 1003.8
20260906122104 95 150 7.0 9.6 0.00 0.00 0.00 68 1003.9
20260906121600 95 127 4.3 11.3 0.00 0.00 0.00 67 1004.0
20260906121056 95 177 7.8 9.6 0.00 0.00 0.00 68 1004.2
20260906120551 95 147 7.0 10.4 0.00 0.00 0.00 67 1004.0
20260906120049 95 130 5.2 9.6 0.00 0.00 0.00 66 1004.1
20260906115548 95 157 6.1 8.7 0.00 0.00 0.00 66 1004.0
20260906115044 95 163 5.2 13.0 0.00 0.00 0.00 66 1004.2
20260906114544 95 152 7.0 13.0 0.00 0.00 0.00 66 1004.3
20260906114039 96 143 2.6 9.6 0.00 0.00 0.00 65 1004.2
20260906113538 95 175 7.8 11.3 0.00 0.00 0.00 66 1004.3
20260906113033 96 147 2.6 9.6 0.00 0.00 0.00 66 1004.3
20260906112528 95 134 6.1 11.3 0.00 0.00 0.00 65 1004.4
20260906112025 97 147 5.2 8.7 0.00 0.00 0.00 63 1004.3
20260906111524 95 137 3.5 9.6 0.00 0.00 0.00 65 1004.4
20260906111020 96 134 6.1 9.6 0.00 0.00 0.00 64 1004.4
20260906110520 96 155 9.6 10.4 0.00 0.00 0.00 64 1004.7
20260906110019 97 163 2.6 9.6 0.00 0.00 0.00 64 1004.6
20260906105514 95 146 6.1 13.0 0.00 0.00 0.00 65 1004.5
20260906105010 96 151 7.8 11.3 0.00 0.00 0.00 63 1004.5
20260906104508 96 103 1.7 13.0 0.00 0.00 0.00 62 1004.6
20260906104003 96 126 2.6 10.4 0.00 0.00 0.00 64 1004.9
20260906103501 97 155 5.2 8.7 0.00 0.00 0.00 63 1004.7
20260906102956 96 125 2.6 11.3 0.00 0.00 0.00 64 1004.5
20260906102451 97 140 4.3 11.3 0.00 0.00 0.00 61 1004.7
20260906101951 98 128 6.1 7.8 0.00 0.00 0.00 61 1004.7
20260906101446 97 182 3.5 8.7 0.00 0.00 0.00 61 1004.7
20260906100946 97 159 2.6 9.6 0.00 0.00 0.00 61 1004.8
20260906100441 97 127 4.3 8.7 0.00 0.00 0.00 63 1004.6
20260906095936 96 132 6.1 10.4 0.00 0.00 0.00 63 1004.8
20260906095431 98 148 4.3 8.7 0.00 0.00 0.00 62 1004.8
20260906094926 97 139 5.2 8.7 0.00 0.00 0.00 62 1004.9
20260906094420 98 160 5.2 8.7 0.00 0.00 0.00 61 1004.8
20260906093916 98 174 4.3 9.6 0.00 0.00 0.00 60 1005.2
20260906093413 98 154 5.2 8.7 0.00 0.00 0.00 60 1005.0
20260906092913 97 178 8.7 9.6 0.00 0.00 0.00 62 1005.0
20260906092412 98 142 5.2 7.0 0.00 0.00 0.00 60 1005.0
20260906091908 97 165 1.7 8.7 0.00 0.00 0.00 62 1005.0
20260906091404 97 155 3.5 8.7 0.00 0.00 0.00 61 1005.1
20260906090900 97 143 7.8 9.6 0.00 0.00 0.00 61 1005.2
20260906090359 96 90 0.9 11.3 0.00 0.00 0.00 63 1005.3
20260906085854 96 140 6.1 12.2 0.00 0.00 0.00 61 1005.3
20260906085353 97 180 0.0 7.8 0.00 0.00 0.00 62 1005.4
20260906084848 98 151 3.5 7.8 0.00 0.00 0.00 60 1005.5
20260906084348 97 138 5.2 9.6 0.00 0.00 0.00 62 1005.4
20260906083842 97 151 2.6 10.4 0.00 0.00 0.00 61 1005.6
20260906083338 96 132 9.6 10.4 0.00 0.00 0.00 62 1005.5
20260906082838 97 137 3.5 7.8 0.00 0.00 0.00 62 1005.6
20260906082333 98 147 6.1 6.1 0.00 0.00 0.00 60 1005.6
20260906081829 96 142 1.7 9.6 0.00 0.00 0.00 63 1005.7
20260906081324 96 182 3.5 8.7 0.00 0.00 0.00 62 1005.8
20260906080820 96 175 2.6 7.8 0.00 0.00 0.00 61 1005.8
20260906080316 95 141 5.2 7.8 0.00 0.00 0.00 63 1005.9
20260906075816 95 155 8.7 9.6 0.00 0.00 0.00 62 1006.0
20260906075316 95 139 6.1 8.7 0.00 0.00 0.00 62 1005.9
20260906074811 96 156 4.3 7.0 0.00 0.00 0.00 62 1006.0
20260906074311 95 117 5.2 8.7 0.00 0.00 0.00 62 1006.0
20260906073810 95 149 6.1 11.3 0.00 0.00 0.00 62 1006.1
20260906073305 95 163 4.3 8.7 0.00 0.00 0.00 63 1006.2
20260906072801 95 147 7.0 8.7 0.00 0.00 0.00 63 1006.3
20260906072257 95 135 3.5 7.8 0.00 0.00 0.00 63 1006.2
20260906071752 95 135 2.6 7.0 0.00 0.00 0.00 64 1006.2
20260906071252 96 142 3.5 6.1 0.00 0.00 0.00 63 1006.2
20260906032012 90 195 0.0 2.6 0.00 0.00 0.00 54 1005.6
20260906031508 90 195 0.0 2.6 0.00 0.00 0.00 54 1005.6
20260906031003 90 195 0.0 2.6 0.00 0.00 0.00 54 1005.6
20260906030458 90 240 1.7 2.6 0.00 0.00 0.00 54 1005.5
20260906025957 90 265 1.7 3.5 0.00 0.00 0.00 54 1005.3
20260906025457 89 242 2.6 3.5 0.00 0.00 0.00 55 1005.4
20260906024956 89 300 1.7 2.6 0.00 0.00 0.00 55 1005.2
20260906024456 89 279 0.0 1.7 0.00 0.00 0.00 55 1005.1
20260906023956 90 264 0.0 3.5 0.00 0.00 0.00 54 1005.3
20260906023452 90 250 4.3 4.3 0.00 0.00 0.00 54 1005.3
20260906022947 90 265 1.7 3.5 0.00 0.00 0.00 54 1005.1
20260906022442 90 255 2.6 3.5 0.00 0.00 0.00 54 1005.0
20260906021938 90 282 1.7 3.5 0.00 0.00 0.00 54 1004.7
20260906021438 89 307 2.6 3.5 0.00 0.00 0.00 54 1004.7
20260906020932 89 264 1.7 2.6 0.00 0.00 0.00 54 1004.9
20260906020427 90 295 1.7 3.5 0.00 0.00 0.00 54 1004.9
20260906015921 90 249 0.9 4.3 0.00 0.00 0.00 53 1004.7
20260906015421 90 323 1.7 4.3 0.00 0.00 0.00 53 1004.7
20260906014920 90 254 1.7 3.5 0.00 0.00 0.00 54 1004.8
20260906014419 90 234 3.5 3.5 0.00 0.00 0.00 53 1004.8
20260906013916 90 222 2.6 5.2 0.00 0.00 0.00 54 1004.6
20260906013411 90 258 2.6 5.2 0.00 0.00 0.00 53 1004.6
20260906012907 90 300 0.9 5.2 0.00 0.00 0.00 54 1004.6
20260906012402 89 252 2.6 6.1 0.00 0.00 0.00 55 1004.7
20260906011901 89 290 2.6 5.2 0.00 0.00 0.00 55 1004.5
20260906011356 90 321 2.6 5.2 0.00 0.00 0.00 55 1004.6
20260906010852 90 239 1.7 7.8 0.00 0.00 0.00 55 1004.6
20260906010348 90 278 3.5 6.1 0.00 0.00 0.00 55 1004.6
20260906005843 90 288 2.6 7.0 0.00 0.00 0.00 55 1004.5
20260906005342 90 252 2.6 4.3 0.00 0.00 0.00 56 1004.4
20260906004842 90 285 5.2 7.8 0.00 0.00 0.00 55 1004.6
20260906004341 90 270 1.7 5.2 0.00 0.00 0.00 56 1004.5
20260906003836 90 285 5.2 5.2 0.00 0.00 0.00 56 1004.5
20260906003332 90 280 1.7 5.2 0.00 0.00 0.00 56 1004.5
20260906002827 90 251 3.5 5.2 0.00 0.00 0.00 55 1004.4
20260906002326 91 206 0.0 6.1 0.00 0.00 0.00 55 1004.3
20260906001823 91 253 2.6 4.3 0.00 0.00 0.00 54 1004.4
20260906001318 90 327 2.6 6.1 0.00 0.00 0.00 54 1004.4
20260906000813 91 281 2.6 4.3 0.00 0.00 0.00 54 1004.4
20260906000307 91 266 2.6 4.3 0.00 0.00 0.00 52 1004.4
20260905235802 91 251 2.6 3.5 0.00 0.00 0.00 53 1004.5
20260905235306 91 228 0.0 3.5 0.00 0.00 0.00 52 1004.4
20260905234758 91 243 0.0 2.6 0.00 0.00 0.00 52 1004.4
20260905234253 92 206 1.7 3.5 0.00 0.00 0.00 50 1004.4
20260905233748 91 243 0.9 2.6 0.00 0.00 0.00 54 1004.5
20260905233248 91 221 0.0 4.3 0.00 0.00 0.00 54 1004.6
20260905232747 91 166 0.9 4.3 0.00 0.00 0.00 56 1004.4
20260905232243 91 249 3.5 3.5 0.00 0.00 0.00 57 1004.3
20260905231739 91 240 0.9 4.3 0.00 0.00 0.00 54 1004.4
20260905231234 92 218 2.6 5.2 0.00 0.00 0.00 53 1004.4
20260905230730 92 245 0.0 3.5 0.00 0.00 0.00 53 1004.5
20260905230228 92 241 1.7 6.1 0.00 0.00 0.00 51 1004.6
20260905225727 91 258 2.6 3.5 0.00 0.00 0.00 53 1004.5
20260905225223 91 248 2.6 3.5 0.00 0.00 0.00 54 1004.4
20260905224722 91 266 4.3 6.1 0.00 0.00 0.00 53 1004.5
20260905224217 92 270 1.7 2.6 0.00 0.00 0.00 51 1004.5
20260905223714 93 270 0.9 4.3 0.00 0.00 0.00 49 1004.5
20260905223210 92 247 3.5 5.2 0.00 0.00 0.00 50 1004.6
20260905222706 93 263 0.9 4.3 0.00 0.00 0.00 49 1004.8
20260905222205 94 171 0.0 1.7 0.00 0.00 0.00 47 1004.6
20260905221700 94 214 3.5 7.8 0.00 0.00 0.00 46 1004.6
20260905221158 95 276 1.7 5.2 0.00 0.00 0.00 46 1004.8
20260905220653 94 180 1.7 5.2 0.00 0.00 0.00 47 1004.9
20260905220149 94 243 0.9 3.5 0.00 0.00 0.00 46 1004.6
20260905215648 94 240 0.0 7.0 0.00 0.00 0.00 46 1004.9
20260905215144 94 255 1.7 2.6 0.00 0.00 0.00 47 1004.7
20260905214640 94 240 0.9 5.2 0.00 0.00 0.00 46 1004.8
20260905214135 94 251 1.7 2.6 0.00 0.00 0.00 46 1004.8
20260905213630 95 198 1.7 2.6 0.00 0.00 0.00 45 1004.9
20260905213125 96 254 0.0 6.1 0.00 0.00 0.00 44 1005.0
20260905212621 95 258 3.5 3.5 0.00 0.00 0.00 44 1005.1
20260905212120 96 206 1.7 5.2 0.00 0.00 0.00 43 1005.1
20260905211615 95 282 2.6 5.2 0.00 0.00 0.00 44 1005.0
20260905211111 95 225 1.7 2.6 0.00 0.00 0.00 44 1005.2
20260905210608 94 240 0.9 2.6 0.00 0.00 0.00 46 1005.1
20260905210107 93 135 2.6 2.6 0.00 0.00 0.00 49 1005.3
20260905205606 94 150 0.0 3.5 0.00 0.00 0.00 49 1005.2
20260905205106 94 203 0.9 2.6 0.00 0.00 0.00 50 1005.1
20260905204600 94 153 2.6 4.3 0.00 0.00 0.00 50 1005.2
20260905204056 94 180 1.7 3.5 0.00 0.00 0.00 50 1005.4
20260905203555 94 144 2.6 2.6 0.00 0.00 0.00 51 1005.3
20260905203051 94 177 1.7 2.6 0.00 0.00 0.00 51 1005.4
20260905202546 94 174 0.0 2.6 0.00 0.00 0.00 51 1005.4
20260905202042 94 176 1.7 3.5 0.00 0.00 0.00 52 1005.6
20260905201537 92 165 1.7 3.5 0.00 0.00 0.00 60 1005.6
20260905201036 92 144 2.6 3.5 0.00 0.00 0.00 64 1005.6
20260905200532 91 153 2.6 3.5 0.00 0.00 0.00 66 1005.6
20260905200031 91 176 3.5 5.2 0.00 0.00 0.00 68 1005.6
20260905195526 91 169 4.3 4.3 0.00 0.00 0.00 69 1005.8
20260905195022 91 191 2.6 6.1 0.00 0.00 0.00 69 1005.9
20260905194521 91 162 2.6 7.0 0.00 0.00 0.00 69 1005.7
20260905194021 91 141 3.5 5.2 0.00 0.00 0.00 68 1005.6
20260905193521 91 157 2.6 7.0 0.00 0.00 0.00 68 1005.8
20260905193017 91 171 3.5 6.1 0.00 0.00 0.00 69 1005.8
20260905192512 91 160 5.2 6.1 0.00 0.00 0.00 69 1005.8
20260905192009 91 120 3.5 7.0 0.00 0.00 0.00 70 1005.7
20260905191507 91 157 5.2 7.0 0.00 0.00 0.00 69 1005.7
20260905191006 91 168 7.8 7.8 0.00 0.00 0.00 71 1005.8
20260905190504 91 162 2.6 7.0 0.00 0.00 0.00 71 1005.9
20260905190003 91 179 7.8 8.7 0.00 0.00 0.00 70 1005.6
20260905185458 91 129 3.5 7.8 0.00 0.00 0.00 70 1005.8
20260905184956 91 133 2.6 7.0 0.00 0.00 0.00 71 1005.9
20260905184452 91 116 3.5 7.0 0.00 0.00 0.00 71 1005.9
20260905183950 91 159 4.3 9.6 0.00 0.00 0.00 74 1005.8
20260905183445 91 170 3.5 7.8 0.00 0.00 0.00 74 1005.9
20260905182940 91 157 7.8 7.8 0.00 0.00 0.00 72 1005.9
20260905182439 91 155 3.5 7.0 0.00 0.00 0.00 73 1006.0
20260905181935 91 108 1.7 7.8 0.00 0.00 0.00 73 1005.9
20260905181435 91 176 7.0 9.6 0.00 0.00 0.00 74 1005.9
20260905180934 90 174 3.5 7.0 0.00 0.00 0.00 77 1005.8
20260905180429 91 180 2.6 7.8 0.00 0.00 0.00 78 1005.8
20260905175924 90 180 7.0 12.2 0.00 0.00 0.00 78 1005.6
20260905175423 90 166 7.8 13.0 0.00 0.00 0.00 78 1005.8
20260905174919 90 149 8.7 11.3 0.00 0.00 0.00 78 1005.8
20260905174414 91 137 5.2 12.2 0.00 0.00 0.00 77 1005.8
20260905173910 91 160 5.2 11.3 0.00 0.00 0.00 78 1005.5
20260905173407 91 152 4.3 11.3 0.00 0.00 0.00 78 1005.6
20260905172906 91 67 1.7 12.2 0.00 0.00 0.00 77 1005.7
20260905172404 91 178 6.1 11.3 0.00 0.00 0.00 77 1005.5
20260905171900 91 121 3.5 11.3 0.00 0.00 0.00 77 1005.8
20260905171357 91 165 5.2 8.7 0.00 0.00 0.00 79 1005.6
20260905170853 91 157 7.8 9.6 0.00 0.00 0.00 79 1005.5
20260905170349 91 187 3.5 7.8 0.00 0.00 0.00 78 1005.4
20260905165848 91 134 10.4 10.4 0.00 0.00 0.00 78 1005.2
20260905165343 91 165 4.3 11.3 0.00 0.00 0.00 79 1005.3
20260905164838 91 176 3.5 8.7 0.00 0.00 0.00 79 1005.2
20260905164333 91 134 5.2 9.6 0.00 0.00 0.00 79 1005.0
20260905163828 91 174 7.0 10.4 0.00 0.00 0.00 78 1005.1
20260905163325 91 132 7.0 9.6 0.00 0.00 0.00 78 1005.0
20260905162821 91 175 7.0 12.2 0.00 0.00 0.00 78 1004.9
20260905162320 91 170 8.7 11.3 0.00 0.00 0.00 78 1004.7
20260905161815 91 132 7.0 9.6 0.00 0.00 0.00 78 1004.7
20260905161314 91 177 4.3 11.3 0.00 0.00 0.00 78 1004.6
20260905160812 91 166 6.1 12.2 0.00 0.00 0.00 78 1004.6
20260905160307 91 175 11.3 13.9 0.00 0.00 0.00 77 1004.6
20260905155802 91 141 4.3 12.2 0.00 0.00 0.00 77 1004.7
20260905155301 91 149 0.0 13.9 0.00 0.00 0.00 77 1004.4
20260905154801 91 152 5.2 13.0 0.00 0.00 0.00 78 1004.4
20260905154257 91 150 6.1 17.4 0.00 0.00 0.00 77 1004.1
20260905153752 91 151 12.2 15.6 0.00 0.00 0.00 77 1004.4
20260905153248 91 191 2.6 13.0 0.00 0.00 0.00 77 1004.2
20260905152743 91 181 5.2 13.0 0.00 0.00 0.00 77 1004.4
20260905152242 91 180 9.6 13.9 0.00 0.00 0.00 77 1004.3
20260905151742 91 106 2.6 12.2 0.00 0.00 0.00 77 1004.0
20260905151238 92 171 6.1 7.8 0.00 0.00 0.00 77 1004.0
20260905150737 91 147 5.2 13.9 0.00 0.00 0.00 76 1004.0